This demonstration page uses our WeatherBlox Daily Observations layout. Learn more.

Left ArrowRight Arrow

Hourly Observations for December 31, 2016

Temp ( °F °C ) Dew Point ( °F °C ) Humidity (%) Winds ( mph kmh ) Pressure ( in mb ) Visibility ( mi km ) Precip ( " mm )
12:53 am 00:53 Clear 13 -10.6 10 -12.2 88 88 SW 21 33 29.84 1010 10 16 0.00 0.00
1:53 am 01:53 Clear 13 -10.6 10 -12.2 88 88 VRB 3 6 29.82 1010 10 16 0.00 0.00
2:53 am 02:53 Clear 16 -8.9 12 -11.1 84 84 SW 16 26 29.80 1009 10 16 0.00 0.00
3:53 am 03:53 Clear 16 -8.9 11 -11.7 80 80 SW 20 31 29.80 1009 10 16 0.00 0.00
4:53 am 04:53 Cloudy 17 -8.3 12 -11.1 80 80 SW 17 28 29.78 1009 10 16 0.00 0.00
5:53 am 05:53 Cloudy 20 -6.7 14 -10 78 78 SW 20 31 29.78 1008 10 16 0.00 0.00
6:53 am 06:53 Mostly Cloudy 20 -6.7 13 -10.6 74 74 SW 24 39 29.75 1008 10 16 0.00 0.00
7:53 am 07:53 Clear 18 -7.8 12 -11.1 77 77 SW 20 31 29.75 1007 10 16 0.00 0.00
8:53 am 08:53 Sunny 18 -7.8 12 -11.1 77 77 SW 22 35 29.75 1007 10 16 0.00 0.00
9:53 am 09:53 Sunny 22 -5.6 15 -9.4 75 75 SW 14 22 29.76 1008 10 16 0.00 0.00
10:53 am 10:53 Sunny 26 -3.3 17 -8.3 69 69 WSW 12 19 29.77 1008 10 16 0.00 0.00
11:53 am 11:53 Sunny 30 -1.1 18 -7.8 61 61 WSW 16 26 29.75 1007 10 16 0.00 0.00
12:53 pm 12:53 Sunny 32 0 19 -7.2 59 59 SW 16 26 29.73 1007 10 16 0.00 0.00
1:11 pm 13:11 Sunny 34 1.1 18 -7.8 52 52 WNW 16 26 29.74 1007 10 16 0.00 0.00
1:53 pm 13:53 Sunny 33 0.6 20 -6.7 58 58 WSW 13 20 29.73 1007 10 16 0.00 0.00
2:53 pm 14:53 Cloudy 30 -1 19 -7 64 64 W 10 17 29.80 1009 10 16 0.00 0.00
3:53 pm 15:53 Mostly Sunny 31 -0.6 19 -7.2 61 61 W 8 13 29.76 1008 10 16 0.00 0.00
4:53 pm 16:53 Clear 22 -5.6 16 -8.9 78 78 SSW 10 17 29.77 1008 10 16 0.00 0.00
5:53 pm 17:53 Mostly Cloudy 20 -6.7 15 -9.4 81 81 WSW 5 7 29.79 1009 10 16 0.00 0.00
6:53 pm 18:53 Mostly Cloudy 18 -7.8 14 -10 84 84 Calm 29.80 1009 10 16 0.00 0.00
7:53 pm 19:53 Cloudy 21 -6.1 17 -8.3 85 85 S 7 11 29.80 1009 10 16 0.00 0.00
8:53 pm 20:53 Cloudy 22 -5.6 17 -8.3 82 82 ESE 3 6 29.79 1009 10 16 0.00 0.00
9:53 pm 21:53 Cloudy 19 -7.2 16 -8.9 88 88 Calm 29.80 1009 10 16 0.00 0.00
10:04 pm 22:04 Cloudy 19 -7 16 -9 86 86 Calm 29.88 1012 10 16 0.00 0.00
10:25 pm 22:25 Cloudy 20 -6.7 16 -8.9 85 85 ENE 3 6 29.88 1012 10 16 0.00 0.00
10:53 pm 22:53 Cloudy 20 -6.7 17 -8.3 89 89 Calm 29.81 1009 10 16 0.00 0.00
11:44 pm 23:44 Cloudy with Light Snow 23 -5 19 -7 86 86 E 9 15 29.88 1012 8 13 0.00 0.00
11:53 pm 23:53 Cloudy with Light Snow 23 -5 19 -7.2 85 85 E 9 15 29.80 1009 8 13 0.00 0.03

Powered by AerisWeather